Location: Mentone
(34.5413°N, 85.5351°W)
Time: 06:26:53
(UTC-06:00)

Tiros 1 despin weight - Visible Passes

Search period start: 26 January 2015 00:00
Search period end: 05 February 2015 00:00
Orbit: 599 x 649 km, 48.2° (Epoch: 25 January)

Date Brightness Start Highest point End Pass type
(mag) Time Alt. Az. Time Alt. Az. Time Alt. Az.
26 Jan ? 17:37:16 10° SSW 17:41:31 35° SE 17:45:39 11° ENE visible
26 Jan ? 19:18:41 10° WSW 19:22:52 42° NW 19:22:52 42° NW visible
27 Jan ? 17:55:16 10° SW 17:59:58 74° SE 18:03:47 16° ENE visible
27 Jan ? 19:38:02 10° W 19:40:59 24° NW 19:40:59 24° NW visible
28 Jan ? 18:13:55 10° WSW 18:18:34 56° NNW 18:21:50 19° NE visible
28 Jan ? 19:57:39 10° WNW 19:59:02 15° NW 19:59:02 15° NW visible
29 Jan ? 18:33:04 10° W 18:37:21 32° NNW 18:39:49 20° NNE visible
30 Jan ? 18:52:35 10° WNW 18:56:18 22° NNW 18:57:44 19° N visible
31 Jan ? 19:12:14 10° NW 19:15:21 17° N 19:15:37 17° N visible
01 Feb ? 17:47:32 10° W 17:51:31 26° NNW 17:55:28 10° NE visible
01 Feb ? 19:31:44 10° NW 19:33:27 14° NNW 19:33:27 14° NNW visible
02 Feb ? 18:07:08 10° WNW 18:10:32 19° NNW 18:13:52 10° NNE visible
02 Feb ? 19:50:45 10° NNW 19:51:16 12° NNW 19:51:16 12° NNW visible
03 Feb ? 18:26:44 10° NW 18:29:37 16° N 18:31:54 12° NNE visible
04 Feb ? 18:45:59 10° NNW 18:48:46 15° N 18:49:42 15° NNE visible
